Weather History for West Palm Beach, FL

Change the Weather History Date:

Tuesday, December 27, 2011

  Actual Average Record
Temperature  
Mean Temperature 75 °F 66 °F  
Max Temperature 82 °F 75 °F 87 °F (1911)
Min Temperature 67 °F 58 °F 31 °F (1909)
Degree Days  
Heating Degree Days 0 3  
Month to date heating degree days 2 46  
Since 1 July heating degree days 3 58  
Cooling Degree Days 10 4  
Month to date cooling degree days 229 139  
Year to date cooling degree days 4799 4005  
Growing Degree Days 25 (Base 50)    
Moisture  
Dew Point 66 °F    
Average Humidity 76    
Maximum Humidity 100    
Minimum Humidity 51    
Precipitation  
Precipitation 0.20 in 0.12 in 1.83 in (1949)
Month to date precipitation 0.90 2.95  
Year to date precipitation 47.89 61.90  
Snow  
Snow 0.00 in - - ()
Month to date snowfall 0.0  
Since 1 July snowfall 0.0  
Snow Depth 0.00 in    
Sea Level Pressure  
Sea Level Pressure 30.01 in    
Wind  
Wind Speed 10 mph (SW)    
Max Wind Speed 20 mph    
Max Gust Speed 28 mph    
Visibility 9 miles    
Events Rain    
T = Trace of Precipitation, MM = Missing Value Source: NWS Daily Summary

Daily Weather History Graph

Daily Weather History Graph

Search for Another Location

Airport:

Trip Planner

Search our weather history database for the weather conditions in past years. The results will help you decide how hot, cold, wet, or windy it might be!

Date:

Astronomy

Dec. 27, 2011 Rise Set
Actual Time 7:07 AM EST 5:35 PM EST
Civil Twilight 6:41 AM EST 6:01 PM EST
Nautical Twilight 6:12 AM EST 6:29 PM EST
Astronomical Twilight 5:44 AM EST 6:58 PM EST
Moon 9:16 AM EST (12/27) 8:49 PM EST (12/27)
Length of Visible Light 11h 19m
Length of Day
10h 28m
Waxing Crescent, 11% of the Moon is Illuminated
Dec 27
Waxing Crescent
Jan 1
First Quarter
Jan 9
Full
Jan 16
Last Quarter
Jan 23
New

Hourly Weather History & Observations

Time (EST) Temp. Heat Index Dew Point Humidity Pressure Visibility Wind Dir Wind Speed Gust Speed Precip Events Conditions
12:53 AM 68.0 °F - 66.0 °F 93% 30.08 in 10.0 mi SE 3.5 mph - N/A   Scattered Clouds
1:53 AM 70.0 °F - 64.9 °F 84% 30.07 in 10.0 mi SSE 3.5 mph - N/A   Scattered Clouds
2:53 AM 72.0 °F - 64.9 °F 78% 30.06 in 10.0 mi SSE 9.2 mph - N/A   Partly Cloudy
3:53 AM 72.0 °F - 64.0 °F 76% 30.05 in 10.0 mi SSE 9.2 mph - N/A   Scattered Clouds
4:53 AM 71.1 °F - 64.9 °F 81% 30.04 in 10.0 mi SSE 8.1 mph - N/A   Partly Cloudy
5:53 AM 71.1 °F - 64.0 °F 78% 30.05 in 10.0 mi South 6.9 mph - N/A   Scattered Clouds
6:53 AM 70.0 °F - 64.0 °F 81% 30.06 in 10.0 mi South 4.6 mph - N/A   Mostly Cloudy
7:53 AM 71.1 °F - 64.9 °F 81% 30.06 in 10.0 mi SW 6.9 mph - N/A   Mostly Cloudy
8:53 AM 73.0 °F - 66.0 °F 79% 30.08 in 10.0 mi SSW 6.9 mph - N/A   Mostly Cloudy
9:53 AM 77.0 °F - 66.9 °F 71% 30.08 in 10.0 mi SSW 10.4 mph - N/A   Scattered Clouds
10:53 AM 78.1 °F - 64.0 °F 62% 30.06 in 10.0 mi South 15.0 mph - N/A   Mostly Cloudy
11:53 AM 81.0 °F 82.5 °F 64.0 °F 56% 30.03 in 10.0 mi South 15.0 mph - N/A   Mostly Cloudy
12:53 PM 81.0 °F 81.9 °F 62.1 °F 52% 30.00 in 10.0 mi SSW 18.4 mph 27.6 mph N/A   Mostly Cloudy
1:53 PM 82.0 °F 83.1 °F 63.0 °F 52% 29.96 in 10.0 mi SSW 13.8 mph 21.9 mph N/A   Mostly Cloudy
2:53 PM 79.0 °F - 64.0 °F 60% 29.94 in 10.0 mi SW 16.1 mph 21.9 mph N/A   Mostly Cloudy
3:53 PM 78.1 °F - 64.9 °F 64% 29.94 in 10.0 mi SSW 15.0 mph 20.7 mph 0.00 in Rain Light Rain
4:41 PM 71.6 °F - 66.2 °F 83% 29.95 in 10.0 mi NW 16.1 mph 26.5 mph 0.00 in Rain Light Rain
4:53 PM 70.0 °F - 68.0 °F 93% 29.95 in 10.0 mi WNW 8.1 mph - 0.00 in Rain Light Rain
5:17 PM 69.8 °F - 68.0 °F 94% 29.96 in 2.0 mi WNW 13.8 mph - 0.02 in Rain Heavy Rain
5:21 PM 69.8 °F - 68.0 °F 94% 29.96 in 1.5 mi West 10.4 mph - 0.08 in Rain Heavy Rain
5:35 PM 69.8 °F - 69.8 °F 100% 29.96 in 4.0 mi West 13.8 mph - 0.14 in Rain Light Rain
5:53 PM 70.0 °F - 69.1 °F 97% 29.97 in 3.0 mi West 15.0 mph - 0.18 in Rain Light Rain
6:14 PM 69.8 °F - 68.0 °F 94% 29.96 in 10.0 mi West 10.4 mph - 0.02 in   Mostly Cloudy
6:53 PM 70.0 °F - 66.9 °F 90% 29.96 in 10.0 mi WSW 6.9 mph - 0.02 in   Mostly Cloudy
7:53 PM 69.1 °F - 68.0 °F 96% 29.97 in 10.0 mi WSW 6.9 mph - N/A   Scattered Clouds
8:53 PM 70.0 °F - 68.0 °F 93% 29.99 in 10.0 mi WSW 8.1 mph - N/A   Mostly Cloudy
9:53 PM 70.0 °F - 68.0 °F 93% 30.00 in 10.0 mi WSW 9.2 mph - 0.00 in   Mostly Cloudy
10:45 PM 69.8 °F - 66.2 °F 88% 30.02 in 10.0 mi West 12.7 mph - N/A   Mostly Cloudy
10:53 PM 69.1 °F - 66.9 °F 93% 30.02 in 10.0 mi West 11.5 mph - N/A   Mostly Cloudy
11:23 PM 68.0 °F - 64.4 °F 88% 30.02 in 10.0 mi West 12.7 mph - N/A   Mostly Cloudy
11:53 PM 66.9 °F - 64.0 °F 90% 30.03 in 10.0 mi WNW 13.8 mph - N/A   Mostly Cloudy